Total_Precipitation_Accumulation
0.34 0.64 0.79 0.79 0.87 0.87 0.66 0.51 0.42 0.36 0.36 0.36 0.29 0.26 0.27 0.26 0.26 0.23 0.19 0.18 0.20 0.19 0.15 0.16 0.17 0.19 0.20 0.22 0.28 0.33 0.39 0.55 0.69 0.79 0.91 1.10 1.28 1.46 1.62 1.74 1.63 1.49 1.44 1.61
0.34 0.44 0.41 0.43 0.54 0.59 0.53 0.46 0.39 0.31 0.25 0.20 0.18 0.19 0.20 0.20 0.19 0.16 0.15 0.14 0.15 0.12 0.11 0.09 0.08 0.10 0.12 0.13 0.17 0.23 0.30 0.42 0.55 0.70 0.93 1.15 1.45 1.54 1.63 1.77 1.82 1.76 1.69 1.84
0.30 0.27 0.21 0.26 0.38 0.39 0.36 0.37 0.36 0.30 0.23 0.16 0.13 0.15 0.18 0.18 0.16 0.14 0.12 0.12 0.13 0.10 0.09 0.06 0.05 0.06 0.09 0.10 0.11 0.18 0.29 0.44 0.66 0.88 1.19 1.49 1.73 1.81 1.86 1.81 1.88 1.97 2.02 2.08
0.34 0.23 0.19 0.23 0.29 0.30 0.35 0.24 0.18 0.17 0.19 0.17 0.17 0.27 0.19 0.20 0.21 0.19 0.17 0.17 0.17 0.14 0.09 0.07 0.07 0.08 0.09 0.11 0.16 0.25 0.41 0.62 0.89 1.23 1.58 1.81 2.04 2.14 1.99 1.97 2.01 2.03 1.98 2.01
0.27 0.20 0.19 0.22 0.19 0.18 0.23 0.18 0.15 0.15 0.16 0.14 0.10 0.16 0.19 0.23 0.30 0.26 0.22 0.21 0.22 0.19 0.15 0.13 0.14 0.15 0.19 0.25 0.32 0.48 0.71 1.01 1.28 1.51 1.69 1.91 2.04 2.06 2.04 2.00 2.00 1.93 1.91 1.87
0.23 0.17 0.16 0.15 0.13 0.13 0.16 0.15 0.15 0.16 0.18 0.17 0.10 0.15 0.25 0.28 0.29 0.27 0.23 0.22 0.19 0.18 0.20 0.21 0.23 0.29 0.37 0.41 0.54 0.72 0.91 1.18 1.35 1.47 1.60 1.79 1.93 1.97 2.00 1.98 1.99 1.98 1.95 1.85
0.17 0.13 0.11 0.08 0.11 0.11 0.12 0.18 0.26 0.26 0.29 0.23 0.16 0.28 0.39 0.35 0.29 0.24 0.23 0.23 0.20 0.23 0.27 0.29 0.38 0.52 0.61 0.65 0.72 0.87 0.95 1.12 1.22 1.27 1.37 1.51 1.58 1.65 1.71 1.70 1.66 1.61 1.57 1.56
0.13 0.12 0.09 0.07 0.08 0.08 0.09 0.16 0.33 0.37 0.34 0.28 0.27 0.49 0.53 0.38 0.31 0.27 0.25 0.22 0.25 0.34 0.43 0.54 0.68 0.77 0.85 0.85 0.81 0.83 0.95 1.00 0.98 1.01 1.02 1.14 1.23 1.30 1.38 1.39 1.38 1.41 1.44 1.45
0.11 0.09 0.06 0.04 0.04 0.05 0.07 0.10 0.17 0.28 0.25 0.25 0.34 0.62 0.62 0.38 0.32 0.28 0.26 0.26 0.33 0.48 0.67 0.89 1.07 1.18 1.26 1.17 0.98 0.84 0.84 0.83 0.81 0.86 0.90 0.95 1.05 1.09 1.12 1.16 1.13 1.22 1.26 1.24
0.09 0.07 0.04 0.03 0.03 0.03 0.07 0.13 0.22 0.39 0.44 0.40 0.46 0.67 0.68 0.52 0.42 0.35 0.36 0.47 0.63 0.82 1.10 1.35 1.59 1.70 1.68 1.49 1.22 0.94 0.79 0.74 0.70 0.73 0.79 0.85 0.89 0.90 0.89 0.93 0.89 0.96 1.04 1.04
0.06 0.08 0.04 0.03 0.05 0.07 0.12 0.21 0.30 0.43 0.50 0.60 0.70 0.85 0.74 0.69 0.64 0.61 0.69 0.87 1.08 1.34 1.53 1.67 1.81 1.86 1.60 1.42 1.17 0.92 0.77 0.79 0.79 0.78 0.78 0.79 0.76 0.75 0.74 0.74 0.72 0.73 0.79 0.80
0.05 0.08 0.08 0.04 0.08 0.12 0.25 0.39 0.54 0.76 0.72 0.70 0.86 0.96 0.76 0.71 0.79 0.83 0.95 1.01 1.10 1.25 1.27 1.35 1.41 1.37 1.32 1.28 1.10 0.94 0.85 0.85 0.89 0.88 0.87 0.78 0.70 0.67 0.67 0.64 0.57 0.58 0.56 0.55
0.13 0.21 0.19 0.15 0.24 0.32 0.40 0.44 0.48 0.59 0.67 0.71 0.91 1.03 0.70 0.65 0.70 0.87 1.04 1.09 1.16 1.19 1.10 1.10 1.10 1.11 1.14 1.11 0.99 0.97 0.95 0.94 0.94 0.92 0.82 0.74 0.68 0.59 0.55 0.49 0.45 0.51 0.53 0.58
0.16 0.26 0.29 0.31 0.37 0.42 0.50 0.48 0.41 0.47 0.68 0.75 0.89 0.87 0.72 0.67 0.67 0.79 0.92 1.02 0.97 0.91 0.86 0.87 0.91 0.94 1.03 1.00 0.96 0.91 0.87 0.92 1.01 1.06 0.96 0.85 0.74 0.62 0.57 0.50 0.45 0.44 0.46 0.53
0.08 0.10 0.13 0.14 0.15 0.23 0.43 0.54 0.52 0.48 0.51 0.68 0.71 0.65 0.59 0.55 0.61 0.66 0.70 0.66 0.58 0.54 0.55 0.60 0.64 0.64 0.62 0.59 0.61 0.63 0.69 0.80 0.94 1.08 1.07 0.93 0.74 0.61 0.55 0.50 0.43 0.41 0.41 0.43
0.02 0.02 0.02 0.03 0.06 0.15 0.29 0.40 0.42 0.38 0.36 0.44 0.49 0.49 0.40 0.37 0.43 0.44 0.46 0.42 0.39 0.35 0.33 0.31 0.32 0.33 0.34 0.31 0.28 0.27 0.33 0.49 0.73 0.99 0.97 0.75 0.58 0.47 0.42 0.41 0.40 0.35 0.35 0.40
0.00 0.01 0.02 0.03 0.03 0.10 0.30 0.36 0.34 0.33 0.25 0.25 0.31 0.31 0.27 0.29 0.35 0.35 0.37 0.39 0.29 0.22 0.20 0.20 0.21 0.20 0.20 0.19 0.18 0.19 0.26 0.38 0.54 0.64 0.60 0.51 0.40 0.38 0.41 0.43 0.37 0.35 0.34 0.36
0.00 0.03 0.06 0.06 0.08 0.28 0.57 0.52 0.44 0.40 0.22 0.15 0.15 0.16 0.19 0.28 0.30 0.30 0.29 0.28 0.27 0.18 0.11 0.11 0.12 0.13 0.15 0.16 0.19 0.23 0.27 0.34 0.38 0.40 0.40 0.34 0.31 0.32 0.34 0.36 0.34 0.40 0.44 0.42
0.04 0.11 0.14 0.15 0.19 0.41 0.54 0.49 0.49 0.48 0.33 0.13 0.09 0.10 0.09 0.09 0.10 0.11 0.12 0.10 0.10 0.07 0.04 0.03 0.03 0.03 0.05 0.05 0.06 0.08 0.10 0.12 0.13 0.12 0.13 0.12 0.12 0.13 0.15 0.16 0.22 0.33 0.40 0.42
0.08 0.13 0.19 0.21 0.29 0.42 0.36 0.23 0.25 0.37 0.43 0.12 0.05 0.04 0.02 0.01 0.03 0.05 0.06 0.06 0.02 0.01 0.01 0.00 0.00 0.00 0.00 0.00 0.00 0.00 0.01 0.01 0.01 0.01 0.01 0.01 0.02 0.02 0.04 0.06 0.09 0.16 0.20 0.25
0.05 0.11 0.17 0.24 0.42 0.63 0.45 0.25 0.23 0.39 0.39 0.09 0.03 0.01 0.00 0.00 0.00 0.01 0.04 0.05 0.02 0.00 0.00 0.00 0.00 0.00 0.00 0.00 0.00 0.00 0.00 0.00 0.00 0.00 0.00 0.00 0.00 0.00 0.01 0.02 0.04 0.07 0.09 0.13
0.07 0.11 0.16 0.30 0.59 0.82 0.64 0.41 0.34 0.26 0.11 0.03 0.01 0.00 0.00 0.00 0.00 0.01 0.02 0.03 0.02 0.01 0.00 0.00 0.00 0.00 0.00 0.00 0.00 0.00 0.00 0.00 0.00 0.00 0.00 0.00 0.00 0.00 0.01 0.01 0.02 0.02 0.04 0.07
0.02 0.04 0.08 0.21 0.45 0.52 0.46 0.35 0.25 0.17 0.07 0.01 0.00 0.00 0.00 0.00 0.00 0.00 0.01 0.01 0.01 0.00 0.00 0.00 0.00 0.00 0.00 0.00 0.00 0.00 0.00 0.00 0.00 0.00 0.00 0.01 0.01 0.01 0.01 0.02 0.02 0.02 0.04 0.06
0.01 0.01 0.01 0.03 0.09 0.15 0.18 0.18 0.11 0.08 0.05 0.01 0.00 0.00 0.00 0.00 0.00 0.00 0.01 0.01 0.01 0.00 0.00 0.00 0.00 0.00 0.00 0.00 0.00 0.00 0.00 0.00 0.00 0.00 0.00 0.00 0.01 0.01 0.01 0.02 0.03 0.04 0.05 0.07
0.01 0.02 0.02 0.02 0.02 0.02 0.06 0.08 0.07 0.04 0.02 0.00 0.00 0.00 0.00 0.00 0.00 0.00 0.01 0.01 0.01 0.00 0.00 0.00 0.00 0.00 0.00 0.00 0.00 0.00 0.00 0.00 0.00 0.00 0.00 0.00 0.01 0.01 0.01 0.01 0.01 0.03 0.04 0.06
0.01 0.02 0.02 0.02 0.01 0.01 0.03 0.04 0.03 0.02 0.01 0.00 0.00 0.00 0.00 0.00 0.00 0.00 0.00 0.01 0.00 0.00 0.00 0.00 0.00 0.00 0.00 0.00 0.00 0.00 0.00 0.00 0.00 0.00 0.00 0.00 0.01 0.01 0.02 0.02 0.01 0.01 0.03 0.06